Location: Bucharest
(44.4268°N, 26.1025°E)
Time: 01:35:18
(UTC+03:00)

O/OREOS (USA 219) - Pass Details

Date: 11 July 2022
Orbit: 621 x 646 km, 72.0° (Epoch: 22 May)

Event Time Altitude Azimuth Distance (km) Brightness Sun altitude
Rises 00:50:09 0° 321° (NW) 2,967 ? -23.1°
Reaches altitude 10° 00:52:57 10° 305° (NW) 2,051 ? -23.1°
Maximum altitude 00:56:14 20° 259° (W) 1,512 ? -23.2°
Enters shadow 00:56:29 19° 255° (WSW) 1,515 ? -23.2°
